Statesville, NC

8:34 PM EST on December 03, 2016 (GMT -0500)
Statesville Municipal

Weather History for KSVH - February, 2013

Change the Weather History Date:

Wednesday, February 6, 2013

  Actual Average (KHKY) Record (KHKY)
Temperature  
Mean Temperature 45 °F -  
Max Temperature 60 °F 48 °F 69 °F (1999)
Min Temperature 30 °F 28 °F 12 °F (1978)
Degree Days  
Heating Degree Days 20    
Moisture  
Dew Point 24 °F    
Average Humidity 47    
Maximum Humidity 93    
Minimum Humidity 19    
Precipitation  
Precipitation 0.00 in - - ()
Sea Level Pressure  
Sea Level Pressure 30.11 in    
Wind  
Wind Speed 3 mph (NW)    
Max Wind Speed 12 mph    
Max Gust Speed 17 mph    
Visibility 10 miles    
Events      
Averages and records for this station are not official NWS values.
T = Trace of Precipitation, MM = Missing Value Source: NWS Daily Summary

Daily Weather History Graph

Daily Weather History Graph

Search for Another Location

Airport or City:

Trip Planner

Search our weather history database for the weather conditions in past years. The results will help you decide how hot, cold, wet, or windy it might be!

Date:

Astronomy

Feb. 06, 2013 Rise Set
Actual Time 7:19 AM EST 5:56 PM EST
Civil Twilight 6:53 AM EST 6:23 PM EST
Nautical Twilight 6:22 AM EST 6:53 PM EST
Astronomical Twilight 5:52 AM EST 7:23 PM EST
Moon 3:58 AM EST (2/6) 2:17 PM EST (2/6)
Length of Visible Light 11h 30m
Length of Day
10h 37m
Waning Crescent, 17% of the Moon is Illuminated
Feb 6
Waning Crescent
Feb 10
New
Feb 17
First Quarter
Feb 25
Full
Mar 4
Last Quarter

Hourly Weather History & Observations

Time (EST) Temp. Windchill Dew Point Humidity Pressure Visibility Wind Dir Wind Speed Gust Speed Precip Events Conditions
12:15 AM 34.0 °F - 29.7 °F 84% 29.97 in 10.0 mi Calm Calm - N/A   Clear
12:35 AM 37.2 °F - 30.7 °F 77% 29.98 in 10.0 mi Calm Calm - N/A   Clear
12:55 AM 35.2 °F - 30.4 °F 82% 29.98 in 10.0 mi Calm Calm - N/A   Clear
1:15 AM 36.3 °F - 30.6 °F 80% 29.98 in 10.0 mi Calm Calm - N/A   Clear
1:35 AM 35.1 °F - 30.2 °F 82% 29.98 in 10.0 mi Calm Calm - N/A   Clear
2:15 AM 35.6 °F - 30.2 °F 81% 29.98 in 10.0 mi Calm Calm - N/A   Clear
2:55 AM 34.7 °F - 30.0 °F 83% 29.98 in 10.0 mi Calm Calm - N/A   Clear
2:58 AM 33.8 °F - 28.4 °F 81% 29.98 in 10.0 mi Calm Calm - N/A   Clear
3:15 AM 33.4 °F - 29.7 °F 86% 29.99 in 10.0 mi Calm Calm - N/A   Clear
3:38 AM 33.8 °F 30.8 °F 30.2 °F 87% 29.99 in 10.0 mi East 3.5 mph - N/A   Clear
3:58 AM 33.8 °F - 28.4 °F 81% 29.99 in 10.0 mi Calm Calm - N/A   Clear
4:18 AM 30.2 °F 25.4 °F 28.4 °F 93% 30.00 in 10.0 mi SW 4.6 mph - N/A   Clear
4:38 AM 30.2 °F 26.7 °F 28.4 °F 93% 30.01 in 10.0 mi WSW 3.5 mph - N/A   Clear
5:18 AM 33.8 °F 28.6 °F 28.4 °F 81% 30.03 in 10.0 mi West 5.8 mph - N/A   Clear
5:38 AM 37.4 °F 32.8 °F 30.2 °F 75% 30.04 in 10.0 mi West 5.8 mph - N/A   Clear
5:57 AM 32.0 °F - 28.4 °F 87% 30.05 in 10.0 mi Calm Calm - N/A   Clear
6:18 AM 33.8 °F 29.6 °F 28.4 °F 81% 30.06 in 10.0 mi West 4.6 mph - N/A   Clear
6:37 AM 35.6 °F 30.7 °F 30.2 °F 81% 30.07 in 10.0 mi West 5.8 mph - N/A   Clear
6:57 AM 41.0 °F 38.0 °F 30.2 °F 65% 30.08 in 10.0 mi WNW 4.6 mph - N/A   Clear
7:18 AM 32.0 °F 28.7 °F 28.4 °F 87% 30.10 in 10.0 mi NW 3.5 mph - N/A   Clear
7:38 AM 41.0 °F 35.2 °F 28.4 °F 61% 30.10 in 10.0 mi WNW 9.2 mph - N/A   Clear
7:55 AM 43.9 °F 40.5 °F 28.0 °F 54% 30.12 in 10.0 mi NW 5.8 mph - N/A   Clear
8:15 AM 44.4 °F 38.6 °F 27.9 °F 52% 30.11 in 10.0 mi NW 11.5 mph - N/A   Clear
8:35 AM 46.2 °F 42.2 °F 27.3 °F 48% 30.13 in 10.0 mi NW 8.1 mph - N/A   Clear
8:55 AM 47.5 °F - 27.1 °F 45% 30.14 in 10.0 mi NW 3.5 mph - N/A   Clear
9:15 AM 49.1 °F - 28.6 °F 45% 30.14 in 10.0 mi NW 6.9 mph - N/A   Clear
9:35 AM 50.4 °F - 27.3 °F 41% 30.14 in 10.0 mi WNW 8.1 mph - N/A   Clear
9:55 AM 51.8 °F - 27.9 °F 40% 30.15 in 10.0 mi WNW 8.1 mph - N/A   Clear
10:15 AM 53.1 °F - 27.5 °F 37% 30.16 in 10.0 mi WNW 8.1 mph - N/A   Clear
10:35 AM 53.8 °F - 24.1 °F 32% 30.15 in 10.0 mi WNW 11.5 mph - N/A   Clear
10:55 AM 54.1 °F - 23.9 °F 31% 30.15 in 10.0 mi NW 5.8 mph - N/A   Clear
11:15 AM 55.6 °F - 23.7 °F 29% 30.16 in 10.0 mi West 11.5 mph - N/A   Clear
11:35 AM 56.1 °F - 23.7 °F 29% 30.16 in 10.0 mi NW 6.9 mph - N/A   Clear
11:55 AM 57.0 °F - 21.0 °F 25% 30.16 in 10.0 mi NW 9.2 mph - N/A   Unknown
12:15 PM 58.1 °F - 23.0 °F 26% 30.16 in 10.0 mi NW 11.5 mph 17.3 mph N/A   Unknown
12:35 PM 58.6 °F - 20.7 °F 23% 30.15 in 10.0 mi NNW 9.2 mph - N/A   Unknown
12:55 PM 57.6 °F - 18.1 °F 22% 30.14 in 10.0 mi NNW 6.9 mph 10.4 mph N/A   Unknown
1:15 PM 59.4 °F - 21.7 °F 23% 30.14 in 10.0 mi WNW 8.1 mph - N/A   Unknown
1:35 PM 59.0 °F - 19.0 °F 21% 30.13 in 10.0 mi West 6.9 mph - N/A   Unknown
1:55 PM 59.4 °F - 18.5 °F 20% 30.13 in 10.0 mi NW 6.9 mph - N/A   Unknown
2:15 PM 60.3 °F - 21.4 °F 22% 30.13 in 10.0 mi NW 9.2 mph - N/A   Unknown
2:35 PM 59.2 °F - 18.3 °F 20% 30.12 in 10.0 mi NW 8.1 mph - N/A   Unknown
2:55 PM 60.8 °F - 20.7 °F 21% 30.12 in 10.0 mi West 4.6 mph - N/A   Unknown
3:15 PM 60.4 °F - 19.9 °F 21% 30.12 in 10.0 mi NW 4.6 mph - N/A   Unknown
3:35 PM 60.8 °F - 21.7 °F 22% 30.12 in 10.0 mi Calm Calm - N/A   Unknown
3:55 PM 60.1 °F - 19.6 °F 21% 30.12 in 10.0 mi WNW 4.6 mph - N/A   Unknown
4:15 PM 60.3 °F - 17.8 °F 19% 30.13 in 10.0 mi WSW 8.1 mph - N/A   Unknown
4:35 PM 60.1 °F - 17.1 °F 19% 30.13 in 10.0 mi Calm Calm - N/A   Unknown
4:55 PM 59.9 °F - 19.9 °F 21% 30.13 in 10.0 mi Calm Calm - N/A   Unknown
5:15 PM 59.0 °F - 20.8 °F 23% 30.13 in 10.0 mi Calm Calm - N/A   Clear
5:55 PM 56.7 °F - 18.5 °F 23% 30.14 in 10.0 mi Calm Calm - N/A   Clear
6:15 PM 55.9 °F - 16.5 °F 21% 30.15 in 10.0 mi Calm Calm - N/A   Clear
6:35 PM 53.4 °F - 18.3 °F 25% 30.16 in 10.0 mi Calm Calm - N/A   Clear
6:55 PM 49.5 °F - 19.9 °F 31% 30.16 in 10.0 mi ENE 5.8 mph - N/A   Clear
7:15 PM 48.4 °F - 21.0 °F 34% 30.16 in 10.0 mi Calm Calm - N/A   Clear
7:35 PM 49.1 °F - 19.4 °F 31% 30.17 in 10.0 mi ENE 3.5 mph - N/A   Clear
8:15 PM 48.2 °F - 20.3 °F 33% 30.18 in 10.0 mi ENE 6.9 mph - N/A   Clear
8:35 PM 46.9 °F - 20.3 °F 35% 30.18 in 10.0 mi East 4.6 mph - N/A   Clear
8:55 PM 46.0 °F 43.9 °F 20.3 °F 36% 30.17 in 10.0 mi NE 4.6 mph - N/A   Clear
9:15 PM 46.2 °F 44.1 °F 20.1 °F 35% 30.18 in 10.0 mi NNE 4.6 mph - N/A   Clear
9:35 PM 46.4 °F 44.3 °F 20.1 °F 35% 30.20 in 10.0 mi NNE 4.6 mph - N/A   Clear
9:55 PM 45.0 °F 41.8 °F 20.7 °F 38% 30.19 in 10.0 mi NNE 5.8 mph - N/A   Clear
10:15 PM 43.5 °F 40.9 °F 22.1 °F 43% 30.21 in 10.0 mi NNE 4.6 mph - N/A   Clear
10:35 PM 45.1 °F - 21.2 °F 39% 30.23 in 10.0 mi Calm Calm - N/A   Clear
10:55 PM 42.6 °F - 22.3 °F 45% 30.23 in 10.0 mi Calm Calm - N/A   Clear
11:15 PM 43.0 °F 40.3 °F 22.3 °F 44% 30.23 in 10.0 mi North 4.6 mph - N/A   Clear
11:35 PM 42.8 °F 39.3 °F 22.3 °F 44% 30.23 in 10.0 mi NNE 5.8 mph - N/A   Clear
11:55 PM 41.2 °F 37.3 °F 23.2 °F 49% 30.22 in 10.0 mi NNE 5.8 mph - N/A   Clear